DW6162 Weather Reports


Display with metric or nautical units.
time (UTC)temp
F
wind
direction
speed
MPH
gust
MPH
rain 1hr
in
rain 24hr
in
rain mn
in
humidity
%
barometer
mb
20260505010649 62 170 4.0 7.0 0.00 0.00 0.00 56 1007.1
20260505010003 61 162 3.0 9.0 0.00 0.00 0.00 55 1006.8
20260505005801 62 165 4.0 6.0 0.00 0.00 0.00 55 1007.0
20260505004857 62 162 4.0 7.0 0.00 0.00 0.00 54 1007.0
20260505004607 62 169 3.0 7.0 0.00 0.00 0.00 54 1006.9
20260505003949 62 163 4.0 5.0 0.00 0.00 0.00 51 1007.0
20260505003345 62 161 4.0 5.0 0.00 0.00 0.00 51 1006.8
20260505002217 64 159 5.0 9.0 0.00 0.00 0.00 49 1006.8
20260505001636 63 162 3.0 8.0 0.00 0.00 0.00 49 1006.6
20260505001300 64 156 5.0 9.0 0.00 0.00 0.00 49 1006.8
20260505000435 64 177 5.0 7.0 0.00 0.00 0.00 48 1006.7
20260504235502 64 169 5.0 11.0 0.00 0.00 0.00 47 1006.6
20260504234623 64 162 4.0 10.0 0.00 0.00 0.00 48 1006.4
20260504234604 64 187 6.0 13.0 0.00 0.00 0.00 47 1006.3
20260504233647 65 165 5.0 10.0 0.00 0.00 0.00 47 1006.4
20260504233104 65 165 4.0 11.0 0.00 0.00 0.00 46 1006.4
20260504232753 65 164 5.0 8.0 0.00 0.00 0.00 47 1006.4
20260504231920 65 172 5.0 10.0 0.00 0.00 0.00 46 1006.5
20260504231556 65 193 4.0 12.0 0.00 0.00 0.00 47 1006.3
20260504230948 66 166 7.0 11.0 0.00 0.00 0.00 45 1006.4
20260504230110 66 154 6.0 11.0 0.00 0.00 0.00 44 1006.3
20260504225202 66 158 4.0 10.0 0.00 0.00 0.00 44 1006.4
20260504224603 66 160 4.0 7.0 0.00 0.00 0.00 44 1006.3
20260504224247 66 148 3.0 4.0 0.00 0.00 0.00 44 1006.3
20260504223353 66 144 3.0 6.0 0.00 0.00 0.00 42 1006.4
20260504223127 66 119 2.0 6.0 0.00 0.00 0.00 42 1006.3
20260504222450 67 160 4.0 9.0 0.00 0.00 0.00 40 1006.2
20260504221627 68 141 3.0 7.0 0.00 0.00 0.00 36 1006.3
20260504221600 67 143 3.0 10.0 0.00 0.00 0.00 38 1006.3
20260504220653 68 135 3.0 7.0 0.00 0.00 0.00 36 1006.2
20260504215746 69 124 3.0 8.0 0.00 0.00 0.00 34 1006.1
20260504214854 70 141 3.0 7.0 0.00 0.00 0.00 34 1006.1
20260504214511 69 74 3.0 7.0 0.00 0.00 0.00 33 1006.2
20260504213946 70 68 3.0 8.0 0.00 0.00 0.00 34 1006.0
20260504213136 69 165 4.0 8.0 0.00 0.00 0.00 34 1006.1
20260504213131 70 146 4.0 7.0 0.00 0.00 0.00 34 1006.1
20260504212146 70 55 3.0 6.0 0.00 0.00 0.00 33 1006.0
20260504211518 70 156 3.0 10.0 0.00 0.00 0.00 32 1006.3
20260504211310 71 142 3.0 6.0 0.00 0.00 0.00 33 1006.2
20260504210447 71 152 3.0 6.0 0.00 0.00 0.00 35 1006.2
20260504210009 70 78 3.0 6.0 0.00 0.00 0.00 33 1006.2
20260504205446 71 140 3.0 6.0 0.00 0.00 0.00 33 1006.1
20260504204547 70 161 4.0 9.0 0.00 0.00 0.00 34 1006.1
20260504204503 70 304 2.0 9.0 0.00 0.00 0.00 33 1006.3
20260504203645 70 167 6.0 13.0 0.00 0.00 0.00 33 1006.1
20260504203111 70 154 7.0 17.0 0.00 0.00 0.00 33 1006.4
20260504202752 70 166 7.0 12.0 0.00 0.00 0.00 34 1006.3
20260504201848 70 163 5.0 12.0 0.00 0.00 0.00 33 1006.4
20260504201613 70 208 7.0 13.0 0.00 0.00 0.00 33 1006.7
20260504200958 70 143 4.0 7.0 0.00 0.00 0.00 33 1006.5
20260504200006 70 95 3.0 8.0 0.00 0.00 0.00 33 1006.9
20260504195223 70 169 6.0 14.0 0.00 0.00 0.00 36 1006.8
20260504194622 69 162 2.0 13.0 0.00 0.00 0.00 35 1007.1
20260504193002 69 177 6.0 14.0 0.00 0.00 0.00 37 1007.6
20260504192453 70 129 4.0 10.0 0.00 0.00 0.00 35 1007.2
20260504191612 69 206 3.0 14.0 0.00 0.00 0.00 35 1007.7
20260504191555 69 82 3.0 12.0 0.00 0.00 0.00 35 1007.3
20260504190654 69 146 5.0 11.0 0.00 0.00 0.00 35 1007.4
20260504190004 69 91 5.0 12.0 0.00 0.00 0.00 37 1007.9
20260504185756 69 154 4.0 10.0 0.00 0.00 0.00 38 1007.5
20260504184915 68 5 4.0 13.0 0.00 0.00 0.00 39 1007.6
20260504184505 67 162 2.0 12.0 0.00 0.00 0.00 40 1008.1
20260504183957 68 138 4.0 13.0 0.00 0.00 0.00 38 1007.8
20260504183103 68 112 3.0 7.0 0.00 0.00 0.00 39 1008.2
20260504182146 68 129 4.0 14.0 0.00 0.00 0.00 39 1007.9
20260504181502 67 90 2.0 13.0 0.00 0.00 0.00 42 1008.4
20260504180421 68 159 5.0 14.0 0.00 0.00 0.00 41 1008.1
20260504180058 68 131 4.0 9.0 0.00 0.00 0.00 43 1008.6
20260504175459 67 152 5.0 11.0 0.00 0.00 0.00 43 1008.1
20260504174502 65 195 4.0 14.0 0.00 0.00 0.00 42 1008.7
20260504173645 65 105 4.0 9.0 0.00 0.00 0.00 44 1008.2
20260504173004 65 16 3.0 14.0 0.00 0.00 0.00 44 1008.8
20260504172745 66 157 5.0 13.0 0.00 0.00 0.00 44 1008.4
20260504171846 66 154 6.0 14.0 0.00 0.00 0.00 44 1008.5
20260504171605 65 148 6.0 14.0 0.00 0.00 0.00 46 1009.0
20260504170945 65 120 4.0 9.0 0.00 0.00 0.00 44 1008.5
20260504150346 60 163 5.0 10.0 0.00 0.00 0.00 52 1009.8
20260504130646 47 157 3.0 6.0 0.00 0.00 0.00 65 1010.6
20260504081845 41 169 3.0 4.0 0.00 0.00 0.00 70 1010.9
20260504081608 40 187 3.0 4.0 0.00 0.00 0.00 70 1012.6
20260504080945 41 169 3.0 4.0 0.00 0.00 0.00 70 1010.9
20260504060104 41 120 0.0 2.0 0.00 0.00 0.00 70 1013.0
20260504044506 42 131 0.0 1.0 0.00 0.00 0.00 68 1013.3
20260504044245 42 130 0.0 1.0 0.00 0.00 0.00 67 1011.4
20260504043344 42 134 0.0 2.0 0.00 0.00 0.00 67 1011.4
20260504043106 42 131 0.0 2.0 0.00 0.00 0.00 67 1013.3
20260504041545 42 87 0.0 2.0 0.00 0.00 0.00 67 1011.4
20260504041503 42 84 0.0 2.0 0.00 0.00 0.00 67 1013.3
20260504040645 42 104 0.0 2.0 0.00 0.00 0.00 67 1011.3
20260504040137 42 104 0.0 1.0 0.00 0.00 0.00 67 1013.3
20260504035745 42 104 0.0 1.0 0.00 0.00 0.00 66 1011.4
20260504034844 42 104 0.0 1.0 0.00 0.00 0.00 67 1011.5
20260504034503 42 105 0.0 1.0 0.00 0.00 0.00 67 1013.3
20260504033945 42 104 0.0 1.0 0.00 0.00 0.00 66 1011.4
20260504033104 42 105 0.0 1.0 0.00 0.00 0.00 66 1013.3
20260504032145 43 104 0.0 1.0 0.00 0.00 0.00 66 1011.5
20260504031506 43 104 0.0 2.0 0.00 0.00 0.00 65 1013.4
20260504031245 43 126 0.0 2.0 0.00 0.00 0.00 65 1011.5
20260504025444 43 160 0.0 1.0 0.00 0.00 0.00 66 1011.5
20260504024544 43 160 0.0 1.0 0.00 0.00 0.00 65 1011.5
20260504024503 42 161 0.0 1.0 0.00 0.00 0.00 65 1013.5
20260504023644 43 159 0.0 1.0 0.00 0.00 0.00 65 1011.6
20260504023104 43 161 0.0 1.0 0.00 0.00 0.00 64 1013.6
20260504022744 43 0 0.0 0.0 0.00 0.00 0.00 64 1011.6
20260504021845 44 0 0.0 0.0 0.00 0.00 0.00 63 1011.6
20260504021503 43 161 0.0 1.0 0.00 0.00 0.00 62 1013.6
20260504020945 44 159 0.0 1.0 0.00 0.00 0.00 62 1011.6
20260504020112 44 160 0.0 1.0 0.00 0.00 0.00 61 1013.6
20260504020044 45 160 0.0 1.0 0.00 0.00 0.00 61 1011.6
20260504015144 45 160 0.0 1.0 0.00 0.00 0.00 60 1011.5
20260504014502 45 160 0.0 1.0 0.00 0.00 0.00 59 1013.4
20260504013345 46 165 0.0 1.0 0.00 0.00 0.00 59 1011.4
20260504013103 45 161 0.0 2.0 0.00 0.00 0.00 58 1013.4
20260504012445 46 146 0.0 2.0 0.00 0.00 0.00 58 1011.4
20260504011545 46 112 0.0 1.0 0.00 0.00 0.00 58 1011.3
20260504011503 46 124 0.0 2.0 0.00 0.00 0.00 58 1013.3